RH
98 64 35 78 100 100 100 100 100 100 100 92 100 100 100 100 100 99 100 78 38 25 13 14 33 60 71 71 72 62 53 44 44 57 77 96 93 90 98 100 100 51 30 63 59 70 73 98 98 90 95 57 51 10
77 79 87 100 100 93 100 100 100 100 94 100 93 95 99 97 99 100 99 79 58 45 20 27 61 81 90 86 77 51 45 76 98 96 97 100 97 100 100 96 63 58 75 83 77 82 96 96 99 95 85 73 27 9
45 57 100 100 100 100 99 96 100 100 92 84 80 97 99 96 98 100 99 76 54 38 36 48 93 85 80 84 68 34 81 100 100 100 100 100 100 100 100 31 56 53 83 77 80 91 95 88 91 87 88 38 10 7
55 96 100 96 100 100 100 100 98 100 96 68 69 99 100 100 96 99 100 100 89 69 59 95 99 93 86 69 35 81 100 100 100 100 100 100 99 62 77 74 92 100 100 92 82 82 83 89 89 94 65 13 7 6
94 99 100 100 100 97 100 100 95 94 73 81 94 100 100 99 99 100 100 100 99 95 91 100 99 95 71 34 40 100 100 98 100 80 56 81 71 98 94 97 100 100 96 88 100 100 100 100 94 93 35 11 6 5
100 100 100 97 90 79 88 100 79 68 78 92 100 100 100 100 100 99 97 96 100 100 100 100 90 64 33 29 72 100 100 99 96 81 69 63 92 100 99 100 100 100 98 96 100 100 100 100 100 81 19 7 6 5
100 100 100 100 99 76 85 84 71 81 83 100 100 100 100 100 99 99 100 100 100 100 100 87 45 34 32 42 93 100 100 100 100 100 86 87 97 100 98 96 100 100 100 100 100 100 100 98 50 13 7 6 5 5
100 100 100 96 88 87 92 87 79 79 96 100 100 100 100 100 100 100 100 100 100 100 99 64 30 32 81 100 100 100 100 100 100 100 100 100 100 100 94 100 100 100 100 98 100 100 99 32 8 7 7 6 6 6
100 85 64 79 83 72 66 65 78 97 100 100 100 100 100 100 100 100 100 99 98 84 69 44 32 85 100 100 100 100 100 100 98 100 100 100 100 99 100 100 100 100 95 99 100 100 59 9 8 7 7 6 6 7
87 58 44 40 37 46 51 60 99 100 100 100 98 100 100 100 99 98 100 94 84 65 43 36 78 100 92 100 100 100 100 100 96 100 100 96 97 100 100 100 100 98 100 100 100 99 26 8 8 8 7 7 9 10
92 70 45 35 35 37 43 99 100 100 100 100 100 100 100 100 100 92 88 80 68 46 39 74 100 100 100 100 100 100 100 100 96 96 98 94 100 99 96 100 100 100 100 98 72 18 11 36 54 43 28 32 16 8
94 52 27 23 30 50 100 99 100 100 100 100 100 100 100 100 100 100 88 65 60 63 87 99 99 100 100 100 100 100 98 98 99 100 98 100 100 97 100 100 100 100 72 15 10 10 16 18 10 11 13 17 28 9
44 27 20 23 31 71 100 100 100 100 100 100 100 100 100 98 100 92 72 72 74 84 100 100 100 100 100 100 100 100 99 100 99 100 99 94 92 90 52 34 23 33 14 9 8 8 9 11 14 18 22 32 15 7
27 29 21 27 78 100 100 100 100 100 100 100 100 100 100 98 88 78 89 99 96 100 100 100 100 100 97 97 100 100 100 100 100 100 90 55 72 36 19 14 12 11 10 10 10 13 24 40 50 54 48 22 11 8
37 72 95 100 100 100 100 100 100 100 100 100 100 100 95 100 100 97 100 100 100 100 100 100 96 98 100 100 100 100 100 100 100 100 98 64 48 31 20 16 14 14 17 21 24 38 45 40 54 69 46 18 16 18
100 100 100 99 100 100 100 100 100 100 99 100 100 99 100 100 100 99 99 100 100 100 100 92 96 99 98 98 100 98 99 100 100 93 97 88 93 97 76 44 33 33 45 68 86 91 95 94 77 61 48 26 35 47
90 98 100 100 100 100 100 100 100 100 100 100 100 100 100 100 99 93 95 90 91 94 93 91 93 100 100 100 100 100 100 100 100 96 96 96 86 72 72 79 82 85 82 75 83 98 98 76 62 67 71 57 57 60
89 88 98 96 100 100 100 100 96 97 100 100 100 100 99 91 90 82 76 82 96 100 100 100 99 99 100 100 100 100 98 98 98 90 91 97 98 96 91 87 89 92 93 96 98 100 99 90 76 80 88 74 57 45
94 83 87 100 94 86 81 78 69 77 92 95 88 77 72 74 73 82 88 93 100 99 98 99 99 100 100 98 96 96 96 96 98 98 98 99 99 100 100 100 100 99 98 100 100 89 75 83 95 92 82 81 87 93
100 100 100 100 100 100 99 78 56 46 49 61 60 65 68 76 80 83 98 100 100 100 100 100 100 100 100 100 99 97 96 97 98 99 100 100 100 100 100 100 100 100 100 100 96 95 98 97 94 92 94 98 98 98
100 100 100 98 99 98 90 86 75 64 60 56 56 59 76 87 98 100 100 100 98 97 98 98 100 98 96 95 98 100 100 100 100 100 100 100 100 100 100 100 100 100 100 99 98 99 99 98 98 100 100 100 99 98
100 100 100 100 99 99 98 96 89 89 83 78 69 80 94 100 100 100 100 100 96 94 93 96 98 99 98 98 99 100 100 100 100 100 100 100 100 100 100 100 100 100 100 100 100 100 100 100 100 100 100 98 99 100
100 100 100 100 100 99 100 100 100 100 100 100 99 100 100 100 100 100 100 99 96 95 96 97 96 95 95 94 94 97 100 100 100 100 100 100 100 100 100 100 100 99 99 99 99 100 100 100 100 99 99 100 100 97
50 76 83 89 96 100 97 100 100 100 100 100 100 100 100 100 100 100 100 100 98 93 90 87 86 86 86 85 85 87 89 97 100 100 100 100 100 100 99 97 96 97 99 100 100 100 100 100 100 100 100 100 87 64
25 26 28 44 65 69 68 70 90 89 92 96 98 99 100 100 100 100 100 100 100 98 96 91 89 89 90 90 88 88 91 94 97 100 100 100 97 96 97 99 100 100 100 100 100 100 98 99 100 100 91 70 44 26
23 23 23 24 23 26 38 56 58 57 61 67 77 86 90 94 95 94 99 98 96 96 97 97 98 99 98 97 96 97 97 95 99 100 100 100 100 100 100 100 100 100 100 100 100 100 100 100 93 68 42 27 27 32
20 20 20 21 21 22 22 22 26 42 52 58 63 63 64 69 77 83 88 83 82 84 87 90 91 91 93 96 98 99 100 100 100 100 100 100 100 100 100 100 100 100 99 99 100 100 90 62 39 28 29 34 44 68
30 23 18 16 16 18 19 19 19 20 21 32 49 58 61 63 72 77 79 82 86 86 87 89 91 94 98 100 100 100 100 100 100 100 100 100 100 100 100 100 100 99 99 96 76 49 32 27 30 37 58 82 90 90
57 44 26 18 15 13 14 16 16 17 17 18 19 26 53 73 77 78 79 83 88 90 91 94 97 100 100 100 100 100 100 100 100 100 100 100 100 99 99 98 95 79 59 42 31 28 32 40 73 90 91 94 97 100
63 55 57 44 24 17 15 14 16 17 16 16 16 17 25 52 73 82 84 86 90 93 96 98 98 99 99 99 100 100 100 100 100 100 98 98 96 88 82 68 48 35 29 29 32 41 70 90 96 100 100 100 100 100
92 91 84 64 56 57 51 38 24 18 16 15 15 16 19 33 57 72 79 85 88 90 92 96 99 100 100 100 100 100 100 100 98 94 90 86 70 51 39 33 30 31 35 54 85 98 100 100 100 100 100 100 100 100
88 89 93 97 96 91 80 62 52 58 67 62 56 58 55 54 61 64 72 71 77 81 86 87 88 91 87 87 87 88 87 79 68 52 40 33 28 28 31 35 45 77 98 100 100 99 99 100 100 100 99 98 99 100
100 100 100 97 95 96 99 99 97 96 76 52 48 54 57 67 76 75 74 75 73 76 77 75 73 70 65 57 48 40 32 28 25 26 28 34 41 60 88 100 100 98 96 97 99 99 98 97 99 100 100 100 100 100
Wind_Speed
37 49 57 57 54 52 50 47 44 40 40 39 36 34 33 37 43 48 48 47 39 38 29 29 28 29 27 28 28 26 25 25 25 26 25 21 20 18 22 24 19 21 18 17 19 22 22 20 16 14 13 10 12 10
50 51 60 42 47 53 54 40 42 45 43 39 35 32 32 33 37 38 35 35 39 38 29 29 29 26 28 30 28 25 23 18 18 16 16 14 16 19 24 24 20 18 17 16 18 20 23 21 18 15 13 12 11 9
51 60 40 41 45 39 48 49 41 39 36 34 32 30 28 29 29 30 36 35 33 33 29 29 26 29 28 28 28 25 16 15 16 16 16 15 16 19 19 16 17 17 19 20 22 21 22 18 17 13 12 11 10 9
49 44 42 39 46 41 39 36 33 31 30 31 31 25 25 27 28 28 27 33 34 32 31 26 28 31 26 26 23 20 13 13 16 20 24 19 17 17 15 16 18 19 19 19 19 22 24 19 17 14 13 11 11 9
45 46 46 43 41 41 37 32 30 27 29 29 25 24 27 26 25 24 26 30 31 31 26 29 31 30 25 25 23 24 13 14 17 21 24 21 19 19 21 22 19 22 19 18 15 17 18 16 16 15 13 12 11 10
47 42 38 43 35 30 28 29 28 26 25 22 24 32 28 27 30 25 26 29 28 28 26 27 27 25 25 24 24 24 22 18 14 15 21 22 21 18 22 20 20 23 21 20 19 16 13 13 15 15 15 13 12 12
39 39 39 36 33 27 28 28 27 24 21 23 31 37 34 32 30 27 24 22 28 27 26 25 24 23 23 22 25 26 19 19 18 17 20 25 24 26 30 26 25 24 22 18 20 18 15 13 14 15 14 13 12 12
45 42 37 34 29 26 21 22 23 22 23 29 34 33 31 29 27 26 25 27 26 25 24 26 22 21 18 16 22 24 20 19 22 26 26 26 27 28 28 26 29 27 23 21 21 17 15 15 13 13 13 13 12 11
26 28 29 28 25 21 18 16 20 23 27 30 31 30 28 26 23 24 25 24 21 22 24 23 20 22 17 11 12 12 15 18 21 24 26 27 28 28 24 23 22 23 23 20 20 18 15 14 13 12 12 12 12 12
32 30 24 20 20 22 18 17 22 25 28 29 27 25 22 23 27 23 21 22 23 23 23 20 22 20 17 11 12 11 13 17 19 19 20 22 20 21 21 22 21 20 20 17 19 17 16 14 12 11 11 12 12 13
36 29 23 17 18 18 20 21 26 27 26 24 22 24 24 22 20 19 21 22 21 22 21 21 18 13 14 13 11 12 12 16 18 19 22 21 20 21 21 20 19 17 17 15 15 17 15 12 12 13 14 15 15 16
34 29 24 24 23 23 19 25 25 25 24 24 23 23 24 24 25 24 23 25 24 19 16 16 13 13 10 12 14 15 15 15 18 18 17 14 14 13 14 15 14 15 14 13 15 15 15 15 15 15 15 16 18 19
31 25 28 29 24 21 26 24 24 24 27 26 25 24 22 28 28 29 27 24 17 14 15 12 10 11 13 16 17 18 17 16 16 18 11 9 10 10 11 13 14 15 15 15 15 15 16 15 16 17 19 20 21 21
25 34 24 27 26 27 26 26 26 28 25 23 23 22 24 28 27 24 21 20 15 13 7 10 12 14 16 17 18 19 20 20 17 16 14 11 12 12 12 13 14 15 16 17 17 16 17 17 19 21 22 22 22 23
28 30 29 28 28 27 27 30 29 26 21 23 24 20 25 24 24 21 20 19 14 12 15 13 12 14 18 21 23 22 21 18 11 13 16 16 13 11 13 14 14 14 15 16 16 18 19 20 21 22 22 22 22 23
33 30 27 24 22 24 32 29 26 17 17 17 27 27 16 22 19 16 12 15 15 17 15 12 9 13 16 18 19 20 18 15 12 12 14 15 15 15 15 15 15 15 15 17 19 20 21 21 21 22 22 22 23 25
25 23 19 19 21 28 28 25 23 16 11 25 26 32 16 15 12 14 14 11 12 13 13 14 13 14 15 15 15 17 16 15 12 12 14 16 16 17 17 18 17 18 18 19 21 22 21 21 21 22 22 24 26 27
18 19 20 22 28 28 26 24 24 21 20 23 23 21 17 16 14 12 11 10 11 14 14 15 14 14 13 14 14 15 14 13 13 14 14 15 16 17 18 18 19 21 22 23 23 23 21 20 20 23 24 25 27 28
19 21 23 28 33 31 27 27 28 26 25 23 23 21 19 18 15 15 15 15 15 15 16 16 16 15 14 15 15 15 14 15 15 16 15 14 14 15 16 18 19 20 22 24 23 21 21 24 25 25 26 28 30 32
16 20 23 28 32 32 31 29 29 29 28 25 25 22 21 20 18 18 18 16 15 15 16 15 15 14 13 13 14 14 14 15 15 16 16 17 17 17 18 19 20 22 23 22 22 23 25 25 26 28 29 31 32 32
14 15 18 22 26 29 30 31 30 29 29 29 28 25 24 21 18 19 20 17 16 15 14 15 16 15 15 16 16 16 16 17 17 17 17 18 18 19 19 19 21 21 21 22 24 26 27 28 29 30 31 31 33 33
10 13 14 17 18 20 20 22 24 25 27 28 29 27 25 23 20 21 20 18 17 16 14 13 13 14 14 15 15 15 16 16 17 18 18 19 19 19 19 20 21 22 23 25 26 27 28 30 30 31 32 33 33 34
7 10 12 14 15 16 15 17 18 19 20 22 24 24 23 23 22 23 22 19 17 16 15 15 14 14 14 14 14 16 17 18 18 19 20 20 21 20 20 21 22 23 25 26 28 29 30 31 31 32 33 34 33 33
5 5 7 10 12 13 16 16 17 17 18 20 22 23 24 24 24 23 22 22 21 20 19 19 19 19 18 18 18 19 20 20 21 21 21 21 21 21 22 23 25 26 27 27 28 29 31 31 32 33 33 33 33 34
4 4 6 7 9 11 13 15 16 16 18 19 19 19 21 23 25 25 24 24 24 24 23 23 23 22 22 22 22 22 23 23 22 23 23 22 22 23 24 25 26 27 28 29 30 30 31 32 31 31 31 32 35 37
12 11 11 11 11 12 14 14 16 17 19 19 19 20 21 22 24 24 23 24 24 25 24 24 24 24 24 24 24 23 24 24 23 23 23 23 24 25 26 27 27 28 29 31 32 31 30 30 30 31 33 35 35 35
18 19 18 17 17 16 16 17 17 18 18 19 20 22 23 24 24 22 23 24 25 25 24 23 23 23 23 24 23 23 22 23 23 23 23 24 25 26 27 28 29 29 29 28 28 28 28 29 32 34 33 34 36 37
10 15 20 23 23 22 20 18 17 18 19 21 21 21 21 22 22 23 24 25 25 25 24 24 24 24 24 24 24 24 24 25 24 25 25 26 27 27 27 27 26 26 26 26 26 28 30 32 32 33 35 35 35 35
10 9 6 10 17 22 23 21 20 19 20 20 19 21 21 20 20 20 22 24 24 24 24 24 24 24 24 25 25 25 25 25 26 26 26 27 27 26 24 23 23 24 25 27 29 30 30 31 33 34 33 33 34 35
8 8 8 8 5 5 11 17 19 20 21 21 21 20 21 21 19 18 18 18 19 21 22 23 23 23 23 23 23 24 24 25 25 24 23 22 21 22 22 23 25 27 28 29 29 29 31 32 32 33 35 37 38 39
8 8 8 6 4 4 4 6 10 14 16 18 19 19 19 19 20 19 18 17 16 16 16 16 16 17 17 19 19 20 20 20 20 20 21 21 22 24 25 27 27 27 27 28 30 30 31 33 35 36 37 38 38 39
10 9 8 7 8 7 7 8 9 10 10 10 12 13 14 15 16 17 17 17 17 17 16 16 17 17 18 18 19 19 20 21 22 22 23 24 25 25 25 25 27 28 29 30 31 33 34 35 36 37 38 38 38 38
15 14 13 12 9 9 9 10 9 9 10 12 13 13 14 15 16 17 17 17 17 18 19 20 20 20 21 21 22 22 23 23 23 23 23 23 24 25 26 26 28 30 31 32 32 33 34 35 36 36 37 36 35 33
Wind_Direction
191 185 178 181 190 197 195 199 202 204 214 223 227 233 238 224 223 228 230 227 230 233 227 225 224 230 236 240 242 243 247 252 258 265 269 265 261 253 254 276 267 253 245 244 245 247 256 266 253 251 261 266 290 282
188 177 171 176 188 195 198 198 203 213 218 219 228 234 230 223 218 218 215 217 222 225 216 218 223 228 232 234 234 236 241 246 254 263 263 254 262 257 259 263 247 230 233 238 240 247 260 267 248 247 262 274 279 260
173 173 167 182 180 184 192 203 200 205 212 221 231 224 217 215 213 217 212 211 216 220 213 217 222 227 226 227 230 229 235 258 256 248 249 247 247 251 243 237 226 233 240 246 253 256 260 258 244 254 264 270 258 260
166 168 171 170 184 191 187 192 201 209 215 224 226 219 207 203 202 205 208 212 217 218 218 223 220 223 220 220 227 217 224 249 250 227 249 234 245 228 218 220 221 231 246 257 261 259 260 252 240 255 267 256 255 262
159 158 165 170 179 193 200 207 207 212 217 219 219 203 192 191 196 204 206 209 215 218 215 210 213 217 214 216 225 217 234 253 261 244 227 219 213 218 223 227 233 242 256 267 260 255 255 242 235 254 263 255 259 264
143 146 167 183 187 185 189 199 203 209 212 214 196 177 175 190 199 214 209 205 210 216 209 204 208 207 212 221 222 220 228 244 255 242 220 215 212 234 255 249 246 251 257 259 247 247 250 243 243 255 256 253 260 265
157 164 172 174 177 184 192 194 202 207 209 193 181 185 192 201 210 211 206 205 213 211 202 190 196 202 217 233 212 214 232 235 232 233 225 222 227 234 250 254 256 258 263 263 246 244 246 248 249 251 251 255 263 270
148 155 166 164 160 166 170 184 198 205 195 185 185 190 197 204 204 202 203 201 199 197 191 191 191 204 212 211 207 218 233 230 230 233 242 247 252 251 253 258 257 259 265 265 247 240 242 251 247 249 253 257 265 278
156 152 159 166 173 173 179 186 194 193 187 184 185 191 198 198 200 197 190 192 193 196 193 189 194 198 196 176 190 219 229 241 242 240 244 249 253 256 256 252 250 252 256 252 237 231 245 247 246 250 255 262 271 283
162 173 178 176 183 197 192 197 187 182 182 182 186 192 193 187 188 188 184 192 195 196 197 192 193 184 174 187 199 226 242 245 248 244 246 247 249 248 251 252 252 243 247 236 234 232 243 240 247 256 261 269 284 290
167 173 179 194 199 203 203 183 173 175 178 183 187 183 175 178 178 183 187 193 197 198 192 186 180 176 188 191 222 239 250 253 254 252 248 251 247 242 239 238 244 231 228 219 221 229 231 242 257 266 276 283 286 284
173 181 197 203 199 190 179 168 176 178 181 177 169 166 160 167 175 185 192 191 193 195 177 173 172 177 176 208 228 249 266 270 255 249 242 234 221 216 215 210 209 204 209 223 224 229 238 249 258 262 269 276 282 279
188 200 202 206 192 189 170 173 179 177 167 161 170 176 178 180 188 193 196 194 188 179 178 171 181 193 206 218 236 252 269 276 258 239 223 202 213 196 198 200 204 210 221 224 229 235 242 249 258 265 272 278 280 277
208 209 211 186 177 164 170 177 171 160 171 177 175 180 178 188 194 196 192 193 200 197 199 206 217 231 232 232 241 255 263 266 244 224 206 203 214 214 216 216 215 215 220 227 234 241 251 263 270 275 279 281 286 287
156 147 147 152 161 169 170 162 161 170 170 176 179 193 191 193 200 207 209 217 230 219 234 229 234 238 235 235 239 243 249 249 232 227 227 216 215 218 222 222 223 227 232 238 244 255 263 266 273 279 282 284 287 290
138 145 146 148 157 168 166 163 163 152 172 185 188 193 175 191 205 204 210 207 210 213 219 236 259 241 234 230 228 228 231 230 235 242 234 227 224 225 227 230 234 237 245 254 259 265 270 275 275 280 284 285 288 290
151 152 156 168 171 169 170 173 170 171 191 193 204 193 209 191 190 198 205 208 214 222 235 244 261 236 230 226 221 223 223 229 237 240 238 234 230 233 239 245 250 256 259 261 267 276 276 277 279 282 286 287 290 292
168 164 167 170 166 169 173 171 178 173 175 176 189 199 198 199 205 218 231 243 237 228 231 234 235 226 221 220 218 222 225 224 229 238 242 240 241 243 247 250 255 261 266 271 277 280 281 283 283 286 288 288 290 292
165 164 167 169 170 175 181 183 183 185 189 193 199 204 207 214 221 232 242 244 240 237 234 232 228 227 231 235 239 237 238 238 237 236 236 238 241 244 248 252 257 261 266 274 279 281 282 285 289 290 291 292 294 296
157 164 169 176 179 184 189 192 197 203 207 208 214 217 220 226 235 239 232 229 227 227 224 226 227 226 232 237 239 238 238 238 240 241 244 248 250 251 254 258 261 265 268 272 275 279 283 285 288 289 291 294 295 297
142 158 174 182 188 197 203 207 214 220 220 223 223 226 223 227 240 228 220 223 226 228 228 228 229 235 240 243 244 244 244 244 241 242 246 250 254 258 261 263 264 265 267 270 276 282 284 284 285 288 291 293 296 298
154 154 161 173 187 197 204 210 217 220 222 223 223 223 226 231 230 220 221 225 231 231 232 234 235 238 242 245 246 247 248 248 248 250 252 255 259 261 263 266 270 273 276 278 280 281 283 284 286 289 292 294 296 296
155 173 187 194 197 197 202 205 210 210 212 212 216 222 225 226 224 223 226 230 230 230 233 234 236 236 241 246 250 253 253 252 252 253 257 261 265 269 272 274 275 276 277 278 279 281 283 286 288 290 292 293 295 298
143 166 185 195 202 209 212 215 215 216 215 219 222 223 221 219 221 224 226 230 235 237 241 244 248 250 254 256 257 257 258 257 257 259 263 266 269 271 272 272 273 274 275 277 280 282 285 286 288 290 293 295 298 300
221 214 218 218 214 213 218 218 218 221 223 224 225 225 224 224 226 227 230 236 239 242 248 253 255 254 255 258 259 259 258 259 260 262 265 269 271 272 273 274 276 278 280 282 283 284 287 289 292 294 295 298 300 302
256 250 242 236 235 232 229 226 224 225 226 227 228 229 231 233 234 236 238 242 246 249 251 252 253 254 257 257 258 259 263 264 265 266 267 269 272 274 277 279 280 279 280 283 286 288 290 292 294 296 299 301 302 304
257 254 250 249 244 240 237 238 239 237 236 234 232 232 232 234 236 236 238 240 242 244 247 250 252 254 257 259 260 261 263 266 267 269 271 273 274 276 277 279 280 282 285 286 287 289 291 294 297 299 301 303 303 303
292 265 255 249 248 246 245 244 245 244 244 241 242 243 244 245 244 241 240 243 245 247 249 252 254 255 257 260 261 263 264 266 267 268 271 274 276 278 280 280 280 283 285 286 289 293 295 297 299 301 302 303 304 305
355 355 317 265 250 246 243 241 243 246 248 248 248 245 243 244 246 247 247 247 248 248 249 251 254 257 259 261 262 265 265 266 269 270 273 275 276 277 277 278 280 283 287 290 293 295 296 298 300 302 303 302 302 302
351 354 1 3 341 265 240 238 244 246 247 247 248 247 246 244 245 248 249 251 250 250 251 252 252 254 255 257 259 261 263 265 267 269 270 271 273 275 278 282 285 287 289 291 292 294 297 298 298 299 301 303 303 302
335 337 340 333 327 322 293 268 254 250 248 249 247 245 244 242 242 245 247 249 250 250 250 250 251 252 253 255 256 258 260 262 265 268 270 272 274 277 279 282 285 287 290 292 293 293 295 298 300 301 301 301 301 302
321 329 323 310 307 299 281 268 266 262 261 254 247 241 238 236 236 239 243 244 246 247 250 250 250 251 253 255 257 258 260 261 264 267 270 273 275 278 280 283 285 288 289 292 294 297 298 299 299 300 300 301 301 302
284 290 293 295 298 293 284 278 273 270 262 256 253 251 247 244 241 240 243 243 244 243 244 246 249 251 252 253 255 258 262 264 266 268 270 274 276 278 281 284 288 290 293 295 295 296 297 298 299 300 301 302 304 304